| Date | Time | Temp. (oF) | Dew Point (oF) | Rel. Hum. (%) | Press. (in.) | Wind Dir. | Wind Speed (mph) | Hourly Rainfall (in.) |
|
|---|---|---|---|---|---|---|---|---|---|
| 1 | 06/28 | 00:00 | 62 | 57 | 85 | 29.66 | SSE | 3 | 0.00 |
| 2 | 06/27 | 23:00 | 61 | 56 | 85 | 29.67 | ENE | 6 | 0.12 |
| 3 | 06/27 | 22:00 | 60 | 55 | 86 | 29.71 | E | 7 | 0.00 |
| 4 | 06/27 | 21:00 | 59 | 54 | 86 | 29.72 | ESE | 13 | 0.01 |
| 5 | 06/27 | 20:00 | 60 | 55 | 85 | 29.76 | SSE | 10 | 0.00 |
| 6 | 06/27 | 19:00 | 60 | 55 | 86 | 29.77 | ENE | 7 | 0.40 |
| 7 | 06/27 | 18:00 | 60 | 55 | 86 | 29.78 | ENE | 10 | 0.56 |
| 8 | 06/27 | 17:00 | 61 | 57 | 87 | 29.79 | E | 7 | 0.31 |
| 9 | 06/27 | 16:00 | 60 | 56 | 87 | 29.80 | ESE | 3 | 0.09 |
| 10 | 06/27 | 15:00 | 60 | 56 | 87 | 29.81 | ESE | 7 | 0.06 |
| 11 | 06/27 | 14:00 | 61 | 57 | 87 | 29.85 | ESE | 7 | 0.14 |
| 12 | 06/27 | 13:00 | 61 | 55 | 83 | 29.89 | E | 6 | 0.06 |
| 13 | 06/27 | 12:00 | 65 | 59 | 81 | 29.91 | ESE | 8 | 0.01 |
| 14 | 06/27 | 11:00 | 65 | 59 | 81 | 29.91 | E | 8 | 0.01 |
| 15 | 06/27 | 10:00 | 65 | 60 | 85 | 29.93 | SSE | 5 | 0.02 |
| 16 | 06/27 | 09:00 | 66 | 61 | 86 | 29.94 | ESE | 5 | 0.00 |
| 17 | 06/27 | 08:00 | 65 | 60 | 86 | 29.97 | SE | 4 | 0.01 |
| 18 | 06/27 | 07:00 | 65 | 60 | 86 | 29.99 | SE | 4 | 0.00 |
| 19 | 06/27 | 06:00 | 65 | 60 | 85 | 29.96 | ESE | 6 | 0.00 |
| 20 | 06/27 | 05:00 | 65 | 59 | 83 | 29.95 | SE | 4 | 0.00 |
| 21 | 06/27 | 04:00 | 66 | 60 | 82 | 29.95 | ESE | 2 | 0.00 |
| 22 | 06/27 | 03:00 | 66 | 59 | 80 | 29.95 | SE | 5 | 0.00 |
| 23 | 06/27 | 02:00 | 68 | 58 | 73 | 29.95 | SSE | 6 | 0.00 |
| 24 | 06/27 | 01:00 | 68 | 60 | 76 | 29.94 | S | 5 | 0.00 |